Regional Weather Roundup
Issued by NWS

Home | Current Version | Previous Version | Text Only | Print | Product List | Glossary On
Versions: 1 2 3 4 5 6 7 8 9 10 11 12 13 14 15 16 17 18 19 20 21 22 23 24 25 26 27 28 29 30 31 32 33 34 35 36 37 38 39 40 41 42 43 44 45 46 47 48 49 50
000
ASUS46 KPQR 141110
RWROR

OREGON REGIONAL WEATHER ROUNDUP
NATIONAL WEATHER SERVICE PORTLAND OR
400 AM PDT MON JUL 14 2014

NOTE: "FAIR" INDICATES FEW OR NO CLOUDS BELOW 12,000 FEET WITH
NO SIGNIFICANT WEATHER AND/OR OBSTRUCTIONS TO VISIBILITY.

ORZ001>013-141200-
NORTHWEST OREGON


CITY           SKY/WX    TMP DP  RH WIND       PRES   REMARKS
ASTORIA        CLOUDY   N/A N/A N/A CALM      30.16S FOG
NEWPORT        CLOUDY    55  55 100 CALM      30.18F
PORTLAND       CLOUDY    62  57  83 W3        30.13S
VANCOUVER WA   CLOUDY    61  56  83 CALM      30.13S
SCAPPOOSE      CLOUDY    60  56  86 CALM      30.13R
HILLSBORO      CLOUDY    61  55  81 NW3       30.13R
AURORA         CLOUDY    61  57  87 CALM      30.13F
MCMINNVILLE    CLOUDY    59  55  87 SW6       30.13F
SALEM          CLOUDY    62  57  83 SW3       30.12F
CORVALLIS      CLOUDY    59  55  88 NW7       30.15F
EUGENE         CLOUDY    60  57  89 S5        30.14S
$$

ORZ021-028-141200-
SOUTHWEST OREGON


CITY           SKY/WX    TMP DP  RH WIND       PRES   REMARKS
NORTH BEND     CLOUDY    57  57 100 N7        30.15F
BROOKINGS      CLOUDY    57  56  97 CALM      30.06F
ROSEBURG       CLOUDY    61  54  77 NW6       30.14S
SEXTON SUMMIT  CLEAR     64  48  56 N9        30.15F
MEDFORD        CLEAR     66  56  70 N7        30.07R
$$

ORZ009-041-141200-
COLUMBIA GORGE


CITY           SKY/WX    TMP DP  RH WIND       PRES   REMARKS
TROUTDALE      CLOUDY    64  57  78 CALM      30.11F
THE DALLES     CLEAR     70  61  73 NW16      30.01R
$$

ORZ029>031-042>050-061>064-141200-
EASTERN OREGON


CITY           SKY/WX    TMP DP  RH WIND       PRES   REMARKS
REDMOND        CLEAR     55  46  71 S5        30.11S
BEND           SUNNY     59  48  67 W3        30.15R
KLAMATH FALLS  CLEAR     58  52  80 CALM      30.14S
LAKEVIEW       CLEAR     61  43  51 NW8       30.19R
HERMISTON      PTCLDY    71  59  65 VRB7      29.98R
PENDLETON      LGT RAIN  71  60  68 CALM      30.03R
MEACHAM        CLOUDY    62  57  83 CALM      30.15F
LA GRANDE      MOCLDY    72  46  40 N13       30.06R
BAKER CITY     CLOUDY    70  50  49 NW13      30.08R
BURNS          CLEAR     65  50  58 W9        30.10R
ROME             N/A     69  40  34 SE8       30.05R
ONTARIO        PTCLDY    80  45  28 CALM      29.92S
$$


USA.gov is the U.S. government's official web portal to all federal, state and local government web resources and services.